Weather Roundup
Issued by NWS Chicago, IL

Home | Current Version | Previous Version | Graphics & Text | Print | Product List | Glossary On
Versions: 1 2 3 4 5 6 7 8 9 10 11 12 13 14 15 16 17 18 19 20 21 22 23 24 25 26 27 28 29 30 31 32 33 34 35 36 37 38 39 40 41 42 43 44 45 46 47 48 49 50
000
NZUS59 KLOT 260409
HRRLOT

CHICAGO AREA WEATHER ROUNDUP
NATIONAL WEATHER SERVICE CHICAGO/ROMEOVILLE IL
1100 PM CDT MON JUL 25 2016

NOTE: "FAIR" INDICATES FEW OR NO CLOUDS BELOW 12,000 FEET WITH NO
SIGNIFICANT WEATHER AND/OR OBSTRUCTIONS TO VISIBILITY.

* THESE STATIONS ARE NOT UNDER NWS QUALITY CONTROL. THEY ALSO MAY NOT
  REPORT WEATHER SUCH AS PRECIPITATION OR FOG.

ILZ005-006-012>014-019>023-260500-
NORTHEAST ILLINOIS

CITY           SKY/WX    TMP DP  RH WIND       PRES   REMARKS
OHARE          PTCLDY    79  63  57 NE3       30.02R HX  80
MIDWAY         CLOUDY    79  61  53 E6        30.01S HX  80
AURORA         CLEAR     71  68  90 CALM      30.03R
LANSING*       MOCLDY    72  64  78 CALM      30.02S
JOLIET*        CLOUDY    76  71  84 CALM      30.02S
WAUKEGAN       CLEAR     68  64  87 CALM      30.02R
DUPAGE AIRPORT MOCLDY    74  64  71 CALM      30.02S
WHEELING       MOCLDY    75  64  68 CALM      30.03S
KANKAKEE*      CLOUDY    72  70  94 CALM      30.03S
MORRIS*        CLOUDY    72  69  92 CALM      30.01S
LEWIS AIRPORT* CLEAR     72  65  78 CALM      30.02S
NORTHERLY ISL    N/A     73  66  78 CALM        N/A
$$

WIZ051-052-058>065-066-070>072-260500-
SOUTHEAST WISCONSIN

CITY           SKY/WX    TMP DP  RH WIND       PRES   REMARKS
MILWAUKEE      PTCLDY    76  64  66 SW6       30.02R
KENOSHA*       CLEAR     67  62  84 W3        30.03S
RACINE*        CLEAR     72  62  71 SW5       30.03S
BURLINGTON     CLEAR     66  65  97 CALM      30.03S
WAUKESHA       CLEAR     68  61  77 CALM      30.04S
$$

INZ001>003-010>013-019-020-260500-
NORTHWEST INDIANA

CITY           SKY/WX    TMP DP  RH WIND       PRES   REMARKS
GARY*          CLOUDY    72  72  99 CALM      30.02S
MICHIGAN CITY* NOT AVBL
RENSSELAER*    NOT AVBL
VALPARAISO     PTCLDY    69  66  90 NE3       30.04R
$$

LMZ740>746-260500-
SOUTHERN LAKE MICHIGAN

STATION/POSITION TIME  SKY/WX   TEMP WIND        PRES    VSBY
                                AIR  DIR/SP/G
                 (UTC)          (F)  (DEG/KT/KT) (MB)    (MI)
HARRISON CRIB    0300            75  150/  2/  3   N/A
BURNHAM HARBOR   0400            72     CALM       N/A
CALUMET HARBOR   0300            76  100/  4/  6   N/A
BURNS HARBOR     0300            76  100/  5/  7 1016.9R
MICHIGAN CITY    0300            76  100/  2/  2   N/A
$$

ABBREVIATIONS USED IN REMARKS
   TC - TEMPERATURE IN CELSIUS
  WCI - WIND CHILL INDEX
   HX - HEAT INDEX
  VSB - VISIBILITY
$$



USA.gov is the U.S. government's official web portal to all federal, state and local government web resources and services.